Яныкурган

Kazakhstan     43˚55′01″N   67˚15′00″E
temp.,
°C
wind,
m/s
gust,
m/s
humid.,
%
clouds,
%
prec.,
mm/h
давл.,
hPa
HPBL,
m
27 november, fri
fri2723:00+2˚se1253100 0.0 102523
02:00+4˚ese2346100 0.0 102424
05:00+5˚se3444100 0.0 102443
08:00+4˚se3448100 0.0 102362
11:00+8˚sse5736100 0.0 1023308
14:00+9˚sse4732100 0.0 1021656
17:00+6˚sse5759100 0.0 1021168
20:00+5˚wsw4688100 1.7 1021392
28 november, sat
sat2823:00+3˚sw4690100 3.6 1022336
02:00+2˚w81195100 2.3 1024626
05:00+1˚w91394100 3.3 1029726
08:00wsw71077100 0.1 1034741
11:00+1˚w7980100 0.4 1038817
14:00+2˚w6871100 0.1 1039946
17:00+2˚w5771100 0.2 1041632
20:00w347796 0.0 1042138
29 november, sun
sun2923:00nw228095 0.1 1043153
02:00−2˚n348660 0.0 104338
05:00−3˚ne238630 0.0 104425
08:00−4˚nne34770 0.0 104543
11:00nne56550 0.0 1045349
14:00+1˚nne57520 0.0 1043396
17:00−2˚nne59650 0.0 1042279
20:00−3˚ne512670 0.0 1042307
30 november, mon
mon3023:00−4˚ene510640 0.0 1041223
02:00−4˚ene510670 0.0 1040197
05:00−4˚ene611690 0.0 1039219
08:00−4˚ene814660 0.0 1038278
11:00+1˚ene912490 0.0 1038518
14:00+1˚ene1014530 0.0 1036563
17:00−2˚ne8165925 0.0 1034444
20:00−3˚ene9175651 0.0 1034420
1 december, tue
tue123:00−3˚ene10175361 0.0 1033407
02:00−3˚ene81355100 0.0 1033264
05:00−3˚ene8145280 0.0 1032259
08:00−3˚ene71155100 0.0 1032184
11:00ene7747100 0.0 1032292
14:00+1˚ene544548 0.0 1031349
17:00−3˚ene576124 0.0 1031107
20:00−4˚ene346124 0.0 103152